UAE84M OMDB-KLAX

Flight info

Callsign UAE84M
Flight time N/A
Altitude 33000
Route DAVMO M318 IMKUK/N0496F350 M318 RIKOP DCT 3756N05855E/N0491F340 DCT PODOK/N0492F350 B359 ADOBI/K0907F350 N167 INKUM/K0900F340 L165 GEDSA/K0909F360 L165 EKSOZ/K0906F350 L165 OSGAN/K0913F360 L165 TINRI/K0900F350 L165 AGMUS/K0909F370 L165 BELEG/K0904F360 L165 ANODI/K0928F380 L165 ABERI/N0494F380 DCT 89N140W DCT DEKMO/N0499F390 DCT 85N140W/N0496F380 80N137W/N0499F390 75N135W 70N135W DCT YXY J536 CFCLG/N0495F410 J536 SSR DCT BKA DCT KATCH DCT KANUA B453 BOXER DCT ENI DCT AVE DCT MUPTT IRNMN2
Aircraft A388/J-SADE2E3FGHIJ3J4J5M1RWXY/LB1D1

Departure

Time N/A
Airport Dubai International Airport (OMDB)

Arrival

Time 2026-05-06 05:02
Airport Los Angeles International Airport (KLAX)
Time Latitude Longitude Altitude Speed Heading
2026-05-06 02:44 61.59223 -135.12846 38751 ft 466 kts 183°
2026-05-06 02:44 61.33455 -135.13127 38786 ft 466 kts 184°
2026-05-06 02:45 61.07563 -135.13406 38808 ft 465 kts 183°
2026-05-06 02:45 60.89942 -135.13594 38801 ft 465 kts 183°
2026-05-06 02:46 60.83501 -135.13662 38786 ft 465 kts 184°
2026-05-06 02:46 60.77030 -135.13730 38787 ft 465 kts 184°
2026-05-06 02:47 60.70561 -135.13798 38787 ft 466 kts 184°
2026-05-06 02:47 60.64066 -135.13866 38793 ft 466 kts 184°
2026-05-06 02:48 60.57585 -135.14031 38817 ft 465 kts 185°
2026-05-06 02:48 60.51533 -135.14396 38825 ft 466 kts 185°
2026-05-06 02:49 60.45059 -135.14764 38862 ft 465 kts 185°
2026-05-06 02:49 60.37977 -135.15137 38886 ft 464 kts 185°
2026-05-06 02:50 60.31532 -135.15471 38882 ft 463 kts 185°
2026-05-06 02:50 60.25083 -135.15803 38881 ft 463 kts 185°
2026-05-06 02:51 60.18628 -135.16135 38893 ft 463 kts 185°
2026-05-06 02:51 60.14383 -135.16352 38931 ft 462 kts 185°
2026-05-06 02:54 60.11177 -135.16517 38921 ft 461 kts 185°
2026-05-06 02:54 60.04774 -135.16842 38931 ft 460 kts 185°
2026-05-06 02:55 59.99449 -135.17113 38928 ft 459 kts 185°
2026-05-06 02:55 59.93066 -135.17438 39271 ft 460 kts 185°
2026-05-06 02:55 59.89861 -135.17599 39663 ft 460 kts 185°
2026-05-06 02:56 59.86661 -135.17760 40009 ft 461 kts 185°
2026-05-06 02:56 59.83452 -135.17922 40330 ft 462 kts 185°
2026-05-06 02:56 59.80231 -135.18083 40646 ft 463 kts 185°
2026-05-06 02:56 59.77004 -135.18245 40899 ft 466 kts 185°
2026-05-06 02:57 59.73750 -135.18409 40945 ft 465 kts 185°
2026-05-06 02:57 59.67362 -135.18719 40952 ft 456 kts 185°
2026-05-06 02:58 59.61027 -135.19037 40956 ft 458 kts 185°
2026-05-06 02:58 59.54650 -135.19356 40961 ft 458 kts 185°
2026-05-06 02:59 59.48278 -135.19672 40959 ft 457 kts 185°
2026-05-06 02:59 59.41959 -135.19985 40957 ft 456 kts 185°
2026-05-06 03:00 59.35615 -135.20298 40924 ft 456 kts 185°
2026-05-06 03:00 59.29264 -135.20608 40954 ft 457 kts 185°
2026-05-06 03:01 59.22902 -135.20917 40967 ft 457 kts 185°
2026-05-06 03:01 59.16595 -135.21221 40989 ft 449 kts 185°
2026-05-06 03:02 59.10398 -135.21518 41009 ft 443 kts 185°
2026-05-06 03:02 59.04269 -135.21814 41011 ft 437 kts 185°
2026-05-06 03:03 58.98223 -135.22106 41015 ft 432 kts 185°
2026-05-06 03:03 58.93724 -135.22322 41024 ft 428 kts 185°
2026-05-06 03:04 58.91553 -135.22426 41029 ft 428 kts 185°
2026-05-06 03:05 58.87069 -135.22646 41026 ft 436 kts 185°
2026-05-06 03:05 58.82343 -135.22878 41048 ft 448 kts 185°
2026-05-06 03:05 58.77037 -135.23132 41036 ft 462 kts 185°
2026-05-06 03:06 58.70537 -135.23436 41042 ft 464 kts 185°
2026-05-06 03:06 58.64146 -135.23729 41059 ft 463 kts 185°
2026-05-06 03:07 58.57696 -135.24034 41072 ft 464 kts 185°
2026-05-06 03:07 58.51235 -135.24336 41082 ft 464 kts 185°
2026-05-06 03:08 58.44771 -135.24637 41085 ft 464 kts 185°
2026-05-06 03:08 58.38352 -135.24935 41051 ft 464 kts 185°
2026-05-06 03:09 58.31904 -135.25234 41077 ft 463 kts 185°
2026-05-06 03:09 58.25460 -135.25531 41087 ft 463 kts 185°
2026-05-06 03:10 58.19017 -135.25837 41080 ft 463 kts 186°
2026-05-06 03:10 58.12632 -135.26977 41085 ft 460 kts 191°
2026-05-06 03:11 58.06258 -135.28500 41090 ft 461 kts 191°
2026-05-06 03:11 57.99886 -135.29977 41096 ft 461 kts 190°
2026-05-06 03:12 57.93507 -135.31428 41099 ft 461 kts 190°
2026-05-06 03:12 57.87172 -135.32863 41098 ft 462 kts 190°
2026-05-06 03:13 57.75849 -135.35416 41115 ft 463 kts 190°
2026-05-06 03:13 57.63122 -135.38266 41117 ft 462 kts 191°
2026-05-06 03:14 57.50343 -135.41106 41125 ft 461 kts 191°
2026-05-06 03:14 57.37600 -135.43920 41132 ft 460 kts 191°
2026-05-06 03:15 57.24889 -135.46707 41128 ft 459 kts 191°
2026-05-06 03:15 57.12248 -135.49461 41130 ft 459 kts 191°
2026-05-06 03:16 56.99573 -135.52201 41138 ft 458 kts 190°
2026-05-06 03:16 56.84537 -135.55423 41131 ft 458 kts 189°
2026-05-06 03:17 56.71833 -135.57511 41142 ft 458 kts 189°
2026-05-06 03:17 56.59247 -135.59603 41143 ft 457 kts 189°
2026-05-06 03:18 56.46570 -135.61706 41147 ft 456 kts 189°
2026-05-06 03:18 56.33931 -135.63789 41146 ft 456 kts 189°
2026-05-06 03:19 56.21277 -135.65860 41151 ft 455 kts 189°
2026-05-06 03:19 56.08665 -135.67911 41157 ft 455 kts 189°
2026-05-06 03:20 55.89835 -135.70948 41156 ft 454 kts 189°
2026-05-06 03:20 55.77253 -135.72961 41159 ft 454 kts 189°
2026-05-06 03:21 55.64663 -135.74962 41160 ft 454 kts 189°
2026-05-06 03:21 55.52052 -135.76953 41169 ft 454 kts 189°
2026-05-06 03:22 55.39479 -135.78925 41181 ft 453 kts 189°
2026-05-06 03:22 55.26924 -135.80883 41185 ft 452 kts 189°
2026-05-06 03:23 55.14396 -135.82824 41185 ft 452 kts 189°
2026-05-06 03:23 55.01850 -135.84755 41189 ft 451 kts 189°
2026-05-06 03:24 54.89438 -135.86654 41192 ft 450 kts 189°
2026-05-06 03:24 54.73996 -135.89001 41199 ft 450 kts 188°
2026-05-06 03:25 54.49033 -135.92754 41212 ft 450 kts 188°
2026-05-06 03:25 54.24206 -135.96442 41225 ft 449 kts 188°
2026-05-06 03:26 53.99227 -135.96967 41229 ft 462 kts 167°
2026-05-06 03:26 53.87929 -135.85980 41229 ft 474 kts 151°
2026-05-06 03:26 53.76990 -135.73396 41236 ft 475 kts 151°
2026-05-06 03:27 53.55142 -135.48407 41243 ft 474 kts 151°
2026-05-06 03:27 53.33229 -135.23689 41237 ft 474 kts 152°
2026-05-06 03:28 53.11360 -134.99329 41248 ft 473 kts 152°
2026-05-06 03:28 52.89377 -134.75145 41248 ft 474 kts 152°
2026-05-06 03:29 52.67363 -134.51223 41252 ft 473 kts 152°
2026-05-06 03:29 52.45348 -134.27591 41250 ft 472 kts 152°
2026-05-06 03:30 52.23276 -134.04185 41249 ft 472 kts 153°
2026-05-06 03:30 52.01288 -133.81144 41258 ft 472 kts 153°
2026-05-06 03:31 51.79167 -133.58238 41241 ft 471 kts 153°
2026-05-06 03:31 51.57047 -133.35604 41243 ft 471 kts 153°
2026-05-06 03:32 51.34903 -133.13205 41256 ft 470 kts 153°
2026-05-06 03:32 51.12772 -132.91079 41238 ft 469 kts 154°
2026-05-06 03:33 50.90616 -132.69181 41240 ft 468 kts 154°
2026-05-06 03:33 50.68422 -132.47491 41245 ft 468 kts 154°
2026-05-06 03:34 50.46255 -132.26071 41240 ft 467 kts 154°
2026-05-06 03:34 50.24083 -132.04883 41228 ft 466 kts 154°
2026-05-06 03:35 50.01902 -131.83918 41227 ft 466 kts 155°
2026-05-06 03:35 49.79821 -131.63274 41226 ft 466 kts 155°
2026-05-06 03:36 49.57611 -131.42734 41223 ft 465 kts 155°
2026-05-06 03:36 49.35354 -131.22369 41214 ft 466 kts 155°
2026-05-06 03:37 49.13047 -131.02174 41224 ft 466 kts 155°
2026-05-06 03:37 48.90677 -130.82135 41190 ft 466 kts 155°
2026-05-06 03:38 48.68274 -130.62278 41178 ft 468 kts 155°
2026-05-06 03:38 48.45692 -130.42468 41207 ft 468 kts 155°
2026-05-06 03:39 48.23313 -130.23038 41178 ft 467 kts 155°
2026-05-06 03:39 48.00770 -130.03667 41190 ft 469 kts 155°
2026-05-06 03:40 47.78039 -129.84310 41185 ft 470 kts 155°
2026-05-06 03:40 47.55136 -129.65692 41166 ft 470 kts 156°
2026-05-06 03:41 47.35951 -129.50512 41165 ft 472 kts 156°
2026-05-06 03:41 47.12729 -129.32330 41167 ft 472 kts 156°
2026-05-06 03:42 46.89447 -129.14284 41152 ft 474 kts 156°
2026-05-06 03:42 46.65996 -128.96286 41134 ft 477 kts 156°
2026-05-06 03:43 46.42441 -128.78384 41151 ft 479 kts 156°
2026-05-06 03:43 46.18801 -128.60594 41130 ft 478 kts 156°
2026-05-06 03:44 45.95298 -128.43085 41133 ft 479 kts 156°
2026-05-06 03:44 45.71541 -128.25556 41128 ft 481 kts 156°
2026-05-06 03:45 45.47700 -128.08130 41134 ft 482 kts 155°
2026-05-06 03:45 45.23800 -127.90823 41125 ft 481 kts 155°
2026-05-06 03:46 44.99904 -127.73687 41116 ft 481 kts 155°
2026-05-06 03:46 44.76072 -127.56754 41124 ft 482 kts 155°
2026-05-06 03:47 44.52044 -127.39842 41119 ft 483 kts 155°
2026-05-06 03:47 44.27955 -127.23042 41120 ft 483 kts 155°
2026-05-06 03:48 44.03886 -127.06412 41112 ft 483 kts 154°
2026-05-06 03:48 43.79703 -126.89854 41105 ft 485 kts 154°
2026-05-06 03:49 43.55427 -126.73383 41116 ft 486 kts 154°
2026-05-06 03:49 43.31063 -126.57061 41113 ft 487 kts 154°
2026-05-06 03:50 43.06759 -126.40983 41112 ft 488 kts 154°
2026-05-06 03:50 42.82237 -126.24902 41114 ft 489 kts 154°
2026-05-06 03:51 42.58499 -126.06892 41127 ft 488 kts 147°
2026-05-06 03:51 42.35365 -125.87462 41116 ft 489 kts 147°
2026-05-06 03:52 42.12162 -125.68152 41114 ft 490 kts 147°
2026-05-06 03:52 41.88874 -125.48940 41126 ft 492 kts 147°
2026-05-06 03:53 41.65456 -125.29787 41123 ft 493 kts 147°
2026-05-06 03:53 41.42153 -125.10892 41126 ft 494 kts 146°
2026-05-06 03:54 41.18520 -124.91892 41130 ft 495 kts 147°
2026-05-06 03:54 40.94900 -124.73065 41130 ft 495 kts 147°
2026-05-06 03:55 40.71216 -124.54345 41126 ft 496 kts 147°
2026-05-06 03:55 40.47466 -124.35730 41108 ft 497 kts 146°
2026-05-06 03:56 40.23602 -124.17180 41106 ft 499 kts 146°
2026-05-06 03:56 39.99635 -123.98706 41088 ft 501 kts 146°
2026-05-06 03:57 39.75617 -123.80343 41080 ft 501 kts 146°
2026-05-06 03:57 39.51662 -123.62177 41073 ft 502 kts 146°
2026-05-06 03:58 39.27524 -123.44021 41072 ft 502 kts 146°
2026-05-06 03:58 39.03555 -123.25703 41066 ft 497 kts 138°
2026-05-06 03:59 38.81977 -123.03578 41046 ft 496 kts 137°
2026-05-06 03:59 38.60313 -122.81603 41058 ft 497 kts 137°
2026-05-06 04:00 38.38578 -122.59733 41066 ft 498 kts 137°
2026-05-06 04:00 38.16766 -122.37958 41076 ft 498 kts 137°
2026-05-06 04:01 37.94944 -122.16341 41092 ft 498 kts 137°
2026-05-06 04:01 37.73005 -121.94776 41095 ft 499 kts 137°
2026-05-06 04:02 37.51084 -121.73395 41102 ft 499 kts 137°
2026-05-06 04:02 37.29194 -121.52206 41105 ft 498 kts 137°
2026-05-06 04:03 37.07177 -121.31054 41119 ft 498 kts 137°
2026-05-06 04:03 36.84971 -121.09880 41118 ft 499 kts 138°
2026-05-06 04:04 36.62941 -120.89031 41097 ft 500 kts 138°
2026-05-06 04:04 36.40705 -120.68142 41085 ft 501 kts 139°
2026-05-06 04:05 36.18395 -120.47337 41079 ft 502 kts 139°
2026-05-06 04:05 35.96009 -120.26613 41071 ft 503 kts 139°
2026-05-06 04:06 35.88654 -120.19835 41063 ft 502 kts 139°
2026-05-06 04:06 35.83039 -120.14671 41059 ft 503 kts 140°
2026-05-06 04:07 35.77462 -120.09552 41069 ft 503 kts 140°
2026-05-06 04:07 35.71846 -120.04404 41062 ft 503 kts 140°
2026-05-06 04:08 35.66226 -119.99273 41063 ft 503 kts 141°
2026-05-06 04:08 35.60297 -119.94623 41072 ft 506 kts 146°
2026-05-06 04:09 35.54235 -119.90210 41055 ft 506 kts 146°
2026-05-06 04:09 35.48189 -119.85785 41055 ft 506 kts 146°
2026-05-06 04:10 35.42128 -119.81357 41056 ft 507 kts 146°
2026-05-06 04:10 35.36064 -119.76937 41037 ft 507 kts 146°
2026-05-06 04:11 35.33046 -119.74741 40846 ft 503 kts 146°
2026-05-06 04:11 35.30049 -119.72564 40599 ft 500 kts 146°
2026-05-06 04:11 35.27099 -119.70420 40366 ft 500 kts 146°
2026-05-06 04:11 35.24105 -119.68246 39877 ft 500 kts 146°
2026-05-06 04:12 35.21093 -119.66060 38992 ft 507 kts 146°
2026-05-06 04:12 35.18036 -119.63842 37801 ft 516 kts 144°
2026-05-06 04:12 35.14928 -119.61591 36771 ft 518 kts 144°
2026-05-06 04:12 35.11840 -119.59360 36050 ft 513 kts 143°
2026-05-06 04:13 35.08786 -119.57159 35421 ft 506 kts 143°
2026-05-06 04:13 35.05756 -119.54973 34551 ft 505 kts 142°
2026-05-06 04:13 35.02725 -119.52784 33445 ft 507 kts 141°
2026-05-06 04:13 34.99698 -119.50601 32540 ft 502 kts 141°
2026-05-06 04:14 34.96716 -119.48459 31982 ft 492 kts 141°
2026-05-06 04:14 34.93804 -119.46362 31196 ft 483 kts 148°
2026-05-06 04:14 34.90950 -119.44319 31059 ft 479 kts 142°
2026-05-06 04:14 34.88093 -119.42265 30287 ft 477 kts 142°
2026-05-06 04:15 34.85229 -119.40196 29126 ft 481 kts 144°
2026-05-06 04:15 34.82335 -119.38117 28080 ft 482 kts 144°
2026-05-06 04:15 34.79466 -119.36062 27409 ft 475 kts 144°
2026-05-06 04:15 34.76655 -119.34055 27023 ft 461 kts 144°
2026-05-06 04:16 34.73967 -119.32021 26372 ft 450 kts 140°
2026-05-06 04:16 34.71431 -119.29796 25523 ft 449 kts 139°
2026-05-06 04:16 34.68915 -119.27576 24986 ft 441 kts 139°
2026-05-06 04:16 34.66442 -119.25401 24326 ft 438 kts 140°
2026-05-06 04:17 34.63981 -119.23246 23692 ft 434 kts 141°
2026-05-06 04:17 34.61545 -119.21139 23111 ft 425 kts 141°
2026-05-06 04:17 34.59158 -119.19086 22594 ft 416 kts 141°
2026-05-06 04:17 34.56825 -119.17083 22071 ft 408 kts 141°
2026-05-06 04:18 34.54523 -119.15088 21540 ft 404 kts 141°
2026-05-06 04:18 34.52261 -119.13084 21058 ft 402 kts 140°
2026-05-06 04:18 34.50038 -119.11101 20536 ft 399 kts 140°
2026-05-06 04:18 34.47786 -119.09096 20033 ft 395 kts 141°
2026-05-06 04:19 34.45604 -119.07161 19538 ft 392 kts 141°
2026-05-06 04:19 34.43405 -119.05218 19040 ft 390 kts 142°
2026-05-06 04:19 34.41213 -119.03309 18552 ft 387 kts 142°
2026-05-06 04:19 34.39027 -119.01421 18034 ft 385 kts 142°
2026-05-06 04:20 34.36829 -118.99526 17562 ft 382 kts 142°
2026-05-06 04:20 34.34700 -118.97688 17042 ft 379 kts 142°
2026-05-06 04:20 34.32570 -118.95826 16581 ft 377 kts 141°
2026-05-06 04:20 34.30485 -118.93935 16122 ft 374 kts 141°
2026-05-06 04:21 34.28417 -118.92039 15642 ft 370 kts 141°
2026-05-06 04:21 34.26371 -118.90170 15204 ft 368 kts 141°
2026-05-06 04:21 34.24341 -118.88320 14750 ft 364 kts 141°
2026-05-06 04:21 34.22353 -118.86491 14388 ft 362 kts 141°
2026-05-06 04:22 34.20357 -118.84653 14239 ft 347 kts 140°
2026-05-06 04:22 34.18476 -118.82923 14102 ft 332 kts 141°
2026-05-06 04:22 34.16669 -118.81263 13973 ft 319 kts 140°
2026-05-06 04:23 34.13387 -118.77736 12818 ft 317 kts 136°
2026-05-06 04:23 34.11758 -118.75951 12214 ft 317 kts 136°
2026-05-06 04:23 34.10126 -118.74174 11711 ft 314 kts 136°
2026-05-06 04:23 34.08512 -118.72417 11160 ft 317 kts 136°
2026-05-06 04:24 34.06891 -118.70656 10892 ft 313 kts 136°
2026-05-06 04:24 34.05276 -118.68910 10570 ft 310 kts 136°
2026-05-06 04:24 34.03762 -118.67144 10417 ft 296 kts 126°
2026-05-06 04:24 34.02843 -118.64990 10154 ft 286 kts 102°
2026-05-06 04:25 34.02568 -118.62624 9660 ft 285 kts 92°
2026-05-06 04:25 34.02369 -118.60241 9191 ft 285 kts 93°
2026-05-06 04:25 34.02235 -118.58758 9050 ft 281 kts 94°
2026-05-06 04:26 34.02101 -118.57336 8878 ft 282 kts 95°
2026-05-06 04:27 34.01807 -118.54241 8491 ft 278 kts 94°
2026-05-06 04:27 34.01662 -118.52699 8417 ft 270 kts 94°
2026-05-06 04:27 34.01452 -118.50493 8276 ft 259 kts 94°
2026-05-06 04:27 34.01255 -118.48421 8126 ft 245 kts 94°
2026-05-06 04:28 34.01080 -118.46379 7752 ft 243 kts 90°
2026-05-06 04:28 34.01202 -118.44360 7362 ft 242 kts 76°
2026-05-06 04:28 34.01577 -118.42379 7038 ft 242 kts 75°
2026-05-06 04:28 34.01932 -118.40393 6771 ft 241 kts 76°
2026-05-06 04:29 34.02270 -118.38418 6501 ft 240 kts 77°
2026-05-06 04:29 34.02798 -118.36521 6268 ft 252 kts 65°
2026-05-06 04:29 34.03163 -118.34332 6054 ft 273 kts 91°
2026-05-06 04:29 34.03092 -118.32041 6012 ft 280 kts 91°
2026-05-06 04:30 34.03019 -118.29704 6014 ft 278 kts 91°
2026-05-06 04:30 34.02946 -118.27382 6011 ft 277 kts 91°
2026-05-06 04:30 34.02874 -118.25056 6010 ft 276 kts 91°
2026-05-06 04:30 34.02793 -118.22738 6010 ft 277 kts 92°
2026-05-06 04:31 34.02704 -118.20416 6009 ft 278 kts 91°
2026-05-06 04:31 34.02615 -118.18082 5976 ft 276 kts 91°
2026-05-06 04:31 34.02530 -118.15794 5949 ft 271 kts 91°
2026-05-06 04:31 34.02448 -118.13560 5896 ft 263 kts 91°
2026-05-06 04:32 34.02373 -118.11397 5817 ft 259 kts 92°
2026-05-06 04:32 34.02311 -118.09218 5463 ft 262 kts 91°
2026-05-06 04:32 34.02331 -118.07022 5082 ft 262 kts 81°
2026-05-06 04:32 34.02715 -118.04878 4705 ft 262 kts 77°
2026-05-06 04:33 34.03106 -118.02881 4396 ft 259 kts 76°
2026-05-06 04:33 34.03520 -118.00792 4092 ft 251 kts 76°
2026-05-06 04:33 34.03920 -117.98799 3984 ft 236 kts 77°
2026-05-06 04:33 34.04286 -117.96962 3991 ft 223 kts 77°
2026-05-06 04:34 34.04652 -117.95150 3993 ft 216 kts 76°
2026-05-06 04:34 34.04964 -117.93423 3988 ft 212 kts 88°
2026-05-06 04:34 34.04630 -117.91733 4001 ft 210 kts 127°
2026-05-06 04:34 34.03549 -117.90619 4002 ft 204 kts 165°
2026-05-06 04:35 34.02189 -117.90520 4008 ft 194 kts 200°
2026-05-06 04:35 34.01067 -117.91346 3995 ft 192 kts 224°
2026-05-06 04:35 34.00289 -117.92645 3998 ft 192 kts 248°
2026-05-06 04:35 33.99941 -117.94189 3997 ft 190 kts 260°
2026-05-06 04:36 33.99766 -117.95784 3996 ft 194 kts 263°
2026-05-06 04:36 33.99612 -117.97369 3992 ft 192 kts 263°
2026-05-06 04:36 33.99447 -117.98978 3997 ft 189 kts 263°
2026-05-06 04:36 33.99290 -118.00519 4001 ft 188 kts 262°
2026-05-06 04:37 33.99129 -118.02088 3996 ft 190 kts 263°
2026-05-06 04:37 33.98965 -118.03687 3999 ft 193 kts 262°
2026-05-06 04:37 33.98799 -118.05290 3988 ft 193 kts 262°
2026-05-06 04:37 33.98635 -118.06888 3993 ft 192 kts 263°
2026-05-06 04:38 33.98467 -118.08524 4017 ft 201 kts 263°
2026-05-06 04:38 33.98296 -118.10174 4016 ft 199 kts 263°
2026-05-06 04:38 33.98125 -118.11829 4016 ft 200 kts 263°
2026-05-06 04:38 33.97968 -118.13496 3996 ft 202 kts 263°
2026-05-06 04:39 33.97780 -118.15176 3989 ft 200 kts 263°
2026-05-06 04:39 33.97772 -118.15251 3988 ft 199 kts 263°
2026-05-06 04:40 33.97725 -118.15704 3993 ft 198 kts 263°
2026-05-06 04:40 33.97561 -118.17344 3992 ft 194 kts 263°
2026-05-06 04:40 33.97396 -118.18943 4002 ft 195 kts 263°
2026-05-06 04:40 33.97228 -118.20580 3999 ft 194 kts 263°
2026-05-06 04:41 33.97063 -118.22191 4005 ft 197 kts 263°
2026-05-06 04:41 33.96896 -118.23812 4019 ft 194 kts 263°
2026-05-06 04:41 33.96728 -118.25445 4021 ft 197 kts 263°
2026-05-06 04:41 33.96559 -118.27086 4023 ft 197 kts 263°
2026-05-06 04:42 33.96390 -118.28732 4027 ft 197 kts 263°
2026-05-06 04:42 33.96223 -118.30359 4024 ft 192 kts 263°
2026-05-06 04:42 33.95865 -118.33847 4027 ft 196 kts 263°
2026-05-06 04:43 33.95698 -118.35462 4026 ft 192 kts 263°
2026-05-06 04:43 33.95532 -118.37071 4024 ft 194 kts 263°
2026-05-06 04:43 33.95366 -118.38689 4019 ft 195 kts 263°
2026-05-06 04:43 33.95198 -118.40313 4027 ft 194 kts 262°
2026-05-06 04:44 33.95037 -118.41928 4026 ft 194 kts 264°
2026-05-06 04:44 33.94898 -118.43568 4036 ft 211 kts 264°
2026-05-06 04:44 33.94750 -118.45382 4023 ft 221 kts 264°
2026-05-06 04:44 33.94593 -118.47263 4027 ft 226 kts 265°
2026-05-06 04:45 33.94429 -118.49141 4021 ft 225 kts 264°
2026-05-06 04:45 33.94272 -118.51022 4025 ft 225 kts 264°
2026-05-06 04:45 33.94116 -118.52885 4031 ft 223 kts 264°
2026-05-06 04:45 33.93960 -118.54744 4226 ft 227 kts 265°
2026-05-06 04:46 33.93754 -118.56708 4491 ft 247 kts 262°
2026-05-06 04:46 33.93482 -118.58762 4753 ft 248 kts 262°
2026-05-06 04:46 33.93398 -118.60811 4975 ft 252 kts 280°
2026-05-06 04:46 33.94099 -118.62731 5025 ft 255 kts 309°
2026-05-06 04:47 33.95520 -118.64026 5020 ft 263 kts 337°
2026-05-06 04:47 33.97322 -118.64463 5018 ft 266 kts 352°
2026-05-06 04:47 33.99166 -118.64730 5016 ft 267 kts 355°
2026-05-06 04:47 34.01000 -118.64384 5021 ft 270 kts 22°
2026-05-06 04:48 34.02497 -118.63038 5019 ft 273 kts 51°
2026-05-06 04:48 34.03312 -118.61000 5020 ft 277 kts 78°
2026-05-06 04:48 34.03591 -118.58707 5020 ft 276 kts 82°
2026-05-06 04:48 34.03853 -118.56419 5023 ft 275 kts 81°
2026-05-06 04:49 34.04027 -118.54866 5024 ft 276 kts 82°
2026-05-06 04:49 34.04284 -118.52608 5030 ft 276 kts 82°
2026-05-06 04:49 34.04551 -118.50311 5022 ft 278 kts 82°
2026-05-06 04:49 34.04817 -118.47995 5023 ft 278 kts 82°
2026-05-06 04:50 34.05081 -118.45699 5026 ft 274 kts 82°
2026-05-06 04:50 34.05346 -118.43426 5024 ft 275 kts 82°
2026-05-06 04:50 34.05612 -118.41131 5023 ft 275 kts 81°
2026-05-06 04:50 34.05868 -118.38892 5022 ft 263 kts 82°
2026-05-06 04:51 34.06113 -118.36776 5026 ft 254 kts 82°
2026-05-06 04:51 34.06371 -118.34660 5019 ft 248 kts 82°
2026-05-06 04:51 34.06621 -118.32673 4940 ft 238 kts 82°
2026-05-06 04:51 34.06864 -118.30738 4840 ft 229 kts 82°
2026-05-06 04:52 34.07095 -118.28837 4560 ft 229 kts 85°
2026-05-06 04:52 34.07132 -118.26912 4310 ft 228 kts 91°
2026-05-06 04:52 34.07106 -118.25009 4048 ft 227 kts 91°
2026-05-06 04:52 34.07083 -118.23111 3821 ft 226 kts 91°
2026-05-06 04:53 34.07063 -118.21207 3598 ft 226 kts 91°
2026-05-06 04:53 34.07044 -118.19327 3389 ft 227 kts 91°
2026-05-06 04:53 34.07019 -118.17440 3164 ft 225 kts 91°
2026-05-06 04:53 34.06987 -118.15594 2987 ft 224 kts 91°
2026-05-06 04:54 34.06952 -118.13750 2991 ft 223 kts 91°
2026-05-06 04:54 34.06909 -118.11873 2994 ft 225 kts 96°
2026-05-06 04:54 34.06360 -118.10136 3000 ft 224 kts 131°
2026-05-06 04:54 34.05131 -118.09074 3004 ft 216 kts 165°
2026-05-06 04:55 34.03703 -118.08696 2991 ft 204 kts 172°
2026-05-06 04:55 34.02329 -118.08364 3000 ft 199 kts 173°
2026-05-06 04:55 34.01002 -118.08581 2993 ft 193 kts 211°
2026-05-06 04:55 34.00017 -118.09636 2994 ft 191 kts 230°
2026-05-06 04:56 33.99161 -118.10865 2986 ft 190 kts 231°
2026-05-06 04:56 33.98392 -118.12145 2995 ft 187 kts 244°
2026-05-06 04:56 33.97971 -118.13618 2980 ft 190 kts 258°
2026-05-06 04:56 33.97777 -118.15139 2983 ft 172 kts 263°
2026-05-06 04:57 33.97643 -118.16585 2984 ft 170 kts 262°
2026-05-06 04:57 33.97500 -118.17930 3001 ft 155 kts 263°
2026-05-06 04:57 33.97373 -118.19189 3003 ft 151 kts 262°
2026-05-06 04:57 33.97244 -118.20443 3016 ft 153 kts 262°
2026-05-06 04:58 33.97113 -118.21708 3002 ft 153 kts 263°
2026-05-06 04:58 33.96982 -118.22983 2929 ft 153 kts 262°
2026-05-06 04:58 33.96850 -118.24270 2758 ft 170 kts 262°
2026-05-06 04:58 33.96703 -118.25681 2520 ft 162 kts 263°
2026-05-06 04:59 33.96573 -118.26959 2291 ft 147 kts 262°
2026-05-06 04:59 33.96450 -118.28166 2111 ft 138 kts 261°
2026-05-06 04:59 33.96329 -118.29331 1920 ft 144 kts 262°
2026-05-06 04:59 33.96205 -118.30533 1740 ft 147 kts 263°
2026-05-06 05:00 33.96086 -118.31694 1519 ft 133 kts 261°
2026-05-06 05:00 33.95972 -118.32799 1353 ft 132 kts 261°
2026-05-06 05:00 33.95863 -118.33882 1186 ft 128 kts 263°
2026-05-06 05:00 33.95750 -118.34957 1005 ft 129 kts 262°
2026-05-06 05:01 33.95648 -118.36028 841 ft 133 kts 262°
2026-05-06 05:01 33.95520 -118.37167 642 ft 136 kts 263°
2026-05-06 05:01 33.95413 -118.38233 469 ft 126 kts 262°
2026-05-06 05:01 33.95305 -118.39297 331 ft 131 kts 261°
2026-05-06 05:02 33.95192 -118.40343 167 ft 120 kts 263°
2026-05-06 05:02 33.95103 -118.41233 99 ft 88 kts 263°
2026-05-06 05:02 33.95049 -118.41764 103 ft 47 kts 263°
2026-05-06 05:02 33.95006 -118.42064 99 ft 25 kts 250°
2026-05-06 05:03 33.94933 -118.42205 102 ft 15 kts 225°
2026-05-06 05:03 33.94914 -118.42227 101 ft 3 kts 221°
2026-05-06 05:03 33.94901 -118.42240 100 ft 1 kts 216°
2026-05-06 05:04 33.94897 -118.42243 102 ft 0 kts 216°
2026-05-06 05:07 33.94896 -118.42244 100 ft 4 kts 216°
2026-05-06 05:08 33.94790 -118.42284 104 ft 22 kts 180°
2026-05-06 05:08 33.94681 -118.42238 102 ft 10 kts 127°
2026-05-06 05:08 33.94679 -118.42167 99 ft 9 kts 74°
2026-05-06 05:08 33.94696 -118.42076 99 ft 13 kts 80°
2026-05-06 05:09 33.94709 -118.41952 98 ft 17 kts 83°
2026-05-06 05:09 33.94725 -118.41798 100 ft 20 kts 83°
2026-05-06 05:09 33.94743 -118.41629 98 ft 20 kts 83°
2026-05-06 05:09 33.94759 -118.41467 102 ft 12 kts 85°
2026-05-06 05:10 33.94735 -118.41397 101 ft 9 kts 143°
2026-05-06 05:10 33.94684 -118.41379 99 ft 7 kts 173°
2026-05-06 05:10 33.94637 -118.41373 99 ft 7 kts 174°
2026-05-06 05:10 33.94589 -118.41367 100 ft 7 kts 174°
2026-05-06 05:11 33.94540 -118.41360 101 ft 7 kts 166°
2026-05-06 05:11 33.94505 -118.41324 100 ft 8 kts 112°
2026-05-06 05:11 33.94459 -118.41252 100 ft 14 kts 162°
2026-05-06 05:11 33.94374 -118.41236 98 ft 11 kts 174°
2026-05-06 05:12 33.94304 -118.41227 101 ft 9 kts 173°
2026-05-06 05:12 33.94273 -118.41219 99 ft 3 kts 145°
2026-05-06 05:12 33.94262 -118.41204 99 ft 2 kts 119°
2026-05-06 05:12 33.94257 -118.41192 102 ft 2 kts 102°
2026-05-06 05:13 33.94258 -118.41152 99 ft 7 kts 84°
2026-05-06 05:13 33.94260 -118.41132 99 ft 2 kts 83°
2026-05-06 05:13 33.94261 -118.41121 98 ft 1 kts 83°
2026-05-06 05:13 33.94261 -118.41115 98 ft 0 kts 82°